Wind_Speed
26 27 28 28 27 25 26 27 26 26 26 26 25 23 22 21 20 18 14 11 11 12 10 8 7 6 7 8 10 11 11 11 12 12 11 10 9 9 9 10 11 12 13 12 11 12 12 13 13 13 13 13 12 12 12 13 13 13 13 14 15 16 17
26 26 28 29 29 28 29 29 28 27 27 26 25 23 22 22 22 19 15 13 12 11 11 9 8 8 9 10 11 12 11 11 11 11 10 9 8 8 9 10 11 12 12 12 12 12 12 12 12 13 13 13 13 12 11 12 13 13 14 14 15 16 17
25 27 29 29 30 31 31 30 29 27 27 26 25 25 24 23 22 19 16 14 12 11 11 10 10 10 11 12 12 12 11 11 10 9 9 8 8 9 9 9 10 10 11 12 12 12 12 12 13 13 13 13 12 12 12 12 13 15 16 16 16 16 17
24 27 28 28 28 29 30 31 29 28 27 26 25 25 25 23 21 19 17 15 12 12 13 12 12 12 12 12 12 10 10 10 10 9 9 8 9 9 9 9 9 10 11 11 11 12 12 13 13 14 13 13 12 12 12 12 13 15 16 17 18 17 17
22 24 26 27 28 28 29 30 29 28 26 25 25 25 25 24 21 19 18 15 13 14 13 13 13 12 12 12 11 10 10 10 10 10 10 10 9 9 8 9 9 10 10 11 11 11 12 13 14 14 14 13 12 12 13 13 13 14 15 16 16 16 16
19 23 25 27 28 28 29 30 29 28 27 26 25 25 24 23 20 18 17 15 15 15 14 14 13 12 11 11 10 10 11 11 10 10 10 10 9 9 8 9 10 10 11 11 11 12 13 13 14 14 14 14 13 13 14 14 14 14 15 15 15 16 17
17 22 25 26 26 27 28 30 29 28 27 25 25 24 23 22 20 18 17 16 15 15 14 13 12 12 11 10 10 11 11 10 9 9 10 9 9 9 9 10 11 11 12 13 13 13 13 14 14 14 14 14 14 14 15 15 14 15 15 15 15 17 16
16 20 23 25 25 24 26 28 29 28 27 26 25 25 23 22 20 18 17 16 15 14 14 13 13 12 10 9 10 10 10 9 9 9 10 9 9 9 10 10 11 12 13 14 14 13 13 15 16 15 14 14 14 14 14 14 14 14 15 15 17 18 16
15 19 22 23 23 24 26 27 28 29 28 26 26 25 24 22 20 18 18 16 14 13 13 12 11 12 12 11 10 10 10 9 9 9 9 9 9 9 9 10 12 12 13 14 14 14 15 16 17 16 15 14 14 14 14 14 15 15 15 16 17 19 18
15 18 20 22 23 25 26 26 28 29 29 28 26 26 24 22 20 18 17 15 13 13 13 11 10 10 12 12 9 9 9 9 9 9 9 9 9 9 10 11 12 12 12 13 14 15 15 16 17 17 16 15 14 15 15 14 15 16 16 17 17 19 20
14 18 20 22 24 26 26 27 29 31 31 29 28 27 25 23 20 18 16 14 13 11 12 11 10 9 10 10 8 8 9 9 9 9 9 9 9 10 10 11 12 12 13 14 14 15 15 15 15 16 17 16 16 17 16 16 16 16 17 17 17 19 21
14 17 20 22 25 26 28 29 31 32 32 31 29 28 27 25 21 19 17 15 13 11 11 10 10 9 9 9 8 8 9 9 9 9 9 9 10 10 11 11 12 13 13 14 14 15 15 15 15 17 18 17 17 18 18 16 16 16 17 18 18 19 21
14 16 18 20 23 25 27 29 30 31 32 31 30 30 29 27 22 18 16 15 13 12 11 11 11 11 10 9 8 9 9 9 9 9 9 10 10 11 11 11 12 13 14 14 14 15 16 16 16 17 18 17 17 18 17 16 15 15 16 17 18 18 19
16 17 18 19 22 24 26 27 28 30 30 30 31 32 31 27 22 19 17 16 15 13 11 11 11 11 10 9 10 10 10 9 9 10 10 10 11 11 12 12 13 14 14 14 14 15 16 16 17 17 17 16 16 17 16 15 14 14 15 16 17 17 19
17 18 19 21 23 25 26 27 28 29 29 30 31 33 32 27 23 20 18 16 16 14 12 12 12 11 9 9 10 10 10 10 10 10 10 10 11 12 12 13 14 14 13 14 15 16 16 17 17 17 17 17 16 16 16 14 13 14 16 16 17 19 20
16 17 19 21 23 25 26 27 28 29 30 31 33 34 32 27 23 20 17 16 16 15 14 14 13 11 9 10 11 10 10 11 11 10 10 10 11 12 12 13 14 13 13 14 16 16 17 17 17 16 16 16 16 15 14 14 15 17 18 17 17 19 21
16 16 18 20 22 24 26 28 28 30 31 33 35 35 32 28 25 20 17 17 17 16 15 15 13 11 9 10 11 11 11 11 11 11 10 10 11 12 12 14 14 13 14 15 16 16 16 16 16 15 15 16 15 15 14 15 17 19 18 17 18 19 20
14 15 17 19 22 24 26 28 29 30 31 33 35 35 33 30 26 22 20 20 18 16 16 15 14 11 10 11 11 11 11 11 11 11 11 11 11 12 13 14 13 13 14 14 15 15 15 15 15 15 15 15 15 15 15 15 17 19 19 18 19 20 20
12 14 15 17 20 22 24 26 27 28 30 32 35 36 34 30 26 23 22 21 19 17 16 15 14 13 12 13 12 12 12 12 12 12 12 12 12 13 13 14 13 12 13 14 14 15 15 15 15 15 15 15 15 15 15 15 17 19 20 20 20 21 20
11 12 14 15 17 19 21 22 23 26 28 31 34 34 31 28 25 23 22 21 20 19 18 17 15 15 14 14 14 13 13 13 13 12 12 12 12 13 13 14 13 12 12 13 13 14 14 14 14 14 14 14 15 15 15 15 16 18 20 20 20 21 20
10 11 12 14 16 17 18 20 21 24 26 28 29 29 27 25 23 21 21 21 20 20 21 20 17 16 16 15 15 15 14 14 13 13 13 13 13 13 14 14 12 12 12 13 13 13 14 14 14 14 14 14 14 14 15 15 16 18 20 21 20 20 20
11 12 12 14 15 16 18 19 20 23 24 25 26 25 23 22 21 19 20 20 20 20 22 21 19 18 17 17 16 16 15 15 14 13 13 13 13 13 14 13 12 12 12 13 13 13 14 14 14 13 14 14 14 15 15 15 16 18 19 20 19 19 20
10 12 12 13 14 15 17 19 20 21 23 24 24 22 20 19 19 18 18 19 19 20 20 20 20 19 19 19 18 17 16 15 14 13 13 13 14 14 14 13 13 12 12 12 13 13 13 14 14 13 14 14 14 16 16 15 16 18 19 19 18 19 19
9 12 13 14 14 15 17 18 19 20 21 22 22 21 19 18 17 17 19 19 19 19 19 20 20 21 21 20 19 18 17 16 15 14 13 14 15 14 14 14 13 12 12 12 12 13 13 13 13 13 13 14 15 17 17 16 16 17 18 18 18 18 19
11 13 13 14 15 16 18 18 19 19 19 19 20 20 19 18 16 17 18 19 20 20 20 20 21 21 21 21 19 17 17 16 15 15 14 14 15 14 14 14 14 13 13 13 12 13 13 12 13 13 14 15 16 18 18 17 15 15 16 17 17 17 18
14 15 15 15 16 16 17 18 19 18 18 18 19 19 18 17 17 17 18 19 21 21 21 22 22 21 20 19 18 17 17 17 17 16 15 15 15 15 15 15 14 14 14 13 13 13 13 12 13 14 15 16 16 17 18 17 14 13 16 17 17 16 17
15 16 16 16 17 18 18 19 19 19 18 17 18 18 17 17 18 19 19 19 20 22 23 23 22 20 20 20 19 19 18 18 18 17 16 16 15 15 15 15 15 15 14 14 13 12 12 13 14 15 16 15 15 16 17 16 14 14 17 18 17 16 17
16 16 16 17 19 20 19 18 18 18 16 15 16 16 16 18 21 22 21 21 22 22 23 23 22 21 22 22 22 21 20 20 19 18 16 16 16 16 16 16 16 16 15 15 15 13 14 14 15 15 16 15 17 17 16 14 14 16 18 19 18 17 17
18 18 18 18 19 18 16 15 15 15 13 12 12 13 15 19 21 23 23 24 24 23 22 22 22 23 24 24 25 25 23 20 19 18 17 18 17 17 17 17 17 18 17 16 16 16 15 14 14 14 15 16 17 17 15 14 13 15 18 19 19 18 19
18 19 18 17 17 15 14 13 13 12 11 10 11 12 16 19 20 21 23 23 22 21 20 20 22 24 26 26 26 27 24 20 20 19 18 19 19 18 17 17 18 18 18 17 17 15 14 13 13 13 14 15 16 16 16 15 13 13 16 18 17 18 19
18 18 17 15 15 14 12 11 10 9 9 11 14 15 17 18 18 18 19 20 19 18 17 18 20 23 25 26 25 25 23 20 20 19 19 19 19 18 17 17 17 18 18 19 18 15 14 13 12 13 13 14 15 15 15 14 13 13 15 17 18 18 18
16 16 15 14 13 14 12 9 9 8 7 8 12 14 15 17 17 18 18 17 17 16 16 17 19 21 24 26 25 24 22 20 19 19 19 19 18 19 18 16 15 17 18 18 17 15 14 12 12 12 13 13 14 14 14 13 12 13 14 17 20 20 18
15 14 14 13 14 14 11 8 7 7 5 5 6 8 10 12 14 17 18 17 15 14 15 18 19 20 22 23 23 22 21 21 21 21 20 19 19 18 16 14 15 17 18 17 16 15 14 13 12 13 14 13 13 13 13 12 12 14 18 20 21 20 18
16 15 14 13 13 12 9 8 7 5 6 6 7 9 11 11 11 13 15 15 14 14 15 16 17 17 17 18 18 19 20 21 20 19 19 17 17 17 16 16 18 19 18 18 19 16 13 11 11 11 12 12 12 12 12 12 12 17 21 21 21 19 17
15 15 14 12 11 10 8 6 6 7 8 9 11 12 13 14 14 13 13 14 14 13 13 13 13 14 15 16 18 19 19 19 18 18 18 18 19 21 20 20 20 18 17 19 21 19 16 13 11 12 12 11 11 13 15 16 16 18 20 20 20 19 17
14 13 12 10 9 7 7 8 9 9 10 10 12 14 14 14 13 13 12 11 11 10 11 12 12 13 15 16 17 18 18 18 18 18 18 17 19 20 18 16 18 20 21 22 22 21 20 18 17 17 17 16 16 18 19 19 19 19 19 17 17 17 16
12 11 10 10 8 7 9 10 10 9 10 11 12 13 12 11 9 9 8 8 8 9 10 11 11 13 14 15 17 18 18 18 17 16 14 13 16 18 17 15 18 22 24 26 26 24 23 22 21 20 19 18 19 20 19 19 19 18 17 16 16 16 15
12 10 9 8 8 10 10 10 9 9 10 11 10 10 8 6 5 6 6 6 7 8 9 9 11 13 14 15 17 18 17 16 16 16 14 13 16 18 16 15 17 21 24 26 27 27 26 23 22 21 20 19 18 19 18 18 17 15 15 15 15 15 15
Wind_Direction
201 198 189 186 189 196 199 195 186 181 184 192 198 198 195 191 195 207 213 221 228 232 238 246 252 258 264 274 283 287 293 300 302 301 299 294 293 295 299 301 302 307 309 308 304 304 310 317 320 321 319 315 314 314 315 317 321 323 320 317 318 317 316
198 204 197 188 189 195 201 196 185 181 185 192 197 196 194 196 203 209 214 225 232 231 238 245 246 257 267 272 279 284 288 295 298 299 300 298 296 295 295 296 300 305 308 305 304 308 315 321 322 322 319 314 314 315 314 314 316 318 316 315 315 314 313
196 206 202 192 188 190 197 197 186 182 184 188 192 192 194 202 209 211 218 229 232 228 235 243 246 255 265 271 277 278 281 291 294 293 292 288 284 283 286 292 298 303 305 306 308 311 316 323 323 322 321 317 313 313 311 310 313 318 320 321 321 317 317
198 205 201 195 188 185 195 197 187 183 183 185 189 190 194 205 209 211 221 230 228 226 230 236 241 249 258 267 273 271 271 281 289 288 285 280 277 280 285 292 296 300 302 304 308 311 315 321 321 321 322 319 314 312 312 311 315 321 323 323 323 322 322
202 204 199 195 190 185 195 198 186 181 182 182 185 186 193 204 207 210 220 224 217 217 223 228 235 243 253 263 266 262 266 277 284 287 285 282 281 282 284 287 290 295 299 302 305 307 310 314 316 319 319 318 313 309 308 309 313 320 322 322 325 326 324
203 204 200 196 190 185 193 197 187 181 181 181 182 182 188 197 199 202 211 216 211 208 218 227 231 238 250 260 261 262 272 283 287 289 290 288 288 287 283 283 287 291 294 298 300 302 306 309 311 313 313 313 311 307 306 307 310 316 320 324 329 329 325
207 203 199 197 191 187 193 194 186 181 181 181 181 181 185 189 190 192 198 204 205 207 217 224 227 235 245 248 251 260 273 280 280 282 286 286 286 285 282 284 291 294 295 300 304 306 306 306 306 307 308 308 308 308 308 308 310 314 316 320 325 326 324
209 202 200 198 190 190 197 192 183 180 180 180 180 183 185 187 188 190 192 196 200 206 213 218 223 231 238 241 246 255 264 268 268 271 278 280 280 281 283 289 295 295 295 298 303 304 302 302 303 304 302 302 304 306 308 309 310 310 313 315 318 321 321
206 201 200 197 189 192 200 193 182 179 180 180 181 183 185 187 188 189 191 193 196 205 211 217 223 226 236 251 258 256 257 263 266 269 272 277 281 280 279 287 293 291 290 293 297 299 300 304 307 305 298 295 297 300 304 309 309 308 311 314 314 315 316
200 197 199 198 191 193 198 192 181 178 180 181 181 183 184 185 186 187 190 193 197 205 212 215 218 219 230 248 255 252 255 262 265 267 269 270 274 275 277 286 290 289 288 291 294 297 300 305 309 308 301 294 293 297 301 305 306 307 310 312 310 308 311
197 194 196 197 192 191 193 188 182 180 181 182 181 181 182 182 182 183 186 191 198 207 211 212 216 217 221 232 240 244 252 259 260 262 264 266 269 273 277 282 285 289 291 293 296 297 299 301 302 302 301 295 292 294 296 300 303 307 311 311 306 304 307
197 196 196 197 193 190 189 185 182 181 182 183 180 178 180 181 181 182 185 189 195 205 209 209 211 213 216 225 234 239 246 254 257 257 260 266 270 272 275 280 286 291 293 293 294 294 296 297 296 296 300 298 294 293 292 293 300 306 307 306 306 306 305
194 197 198 198 194 191 188 185 182 181 181 180 177 179 185 186 184 183 189 193 194 199 206 208 210 214 219 224 229 236 243 250 255 257 260 264 266 269 274 280 285 287 288 291 293 293 294 295 295 295 299 299 297 297 294 292 297 300 297 298 303 303 298
195 195 196 196 195 194 191 187 183 181 179 177 179 187 192 190 187 188 194 195 194 199 204 207 215 225 228 226 231 240 247 249 251 255 261 264 265 268 274 280 283 287 291 292 293 294 294 294 294 293 294 296 295 295 295 294 294 290 289 294 298 294 290
199 197 195 194 195 195 192 189 185 182 180 180 186 192 194 191 189 190 194 196 195 199 202 207 223 237 234 228 240 250 254 256 258 259 262 264 265 269 276 282 286 290 293 292 292 295 295 292 291 290 292 295 295 294 294 293 286 282 286 294 298 296 296
206 203 199 197 196 195 193 191 187 184 184 186 192 195 193 190 186 187 195 202 202 200 201 210 229 245 238 231 243 252 255 263 268 268 267 263 262 269 276 282 288 289 289 291 294 297 296 293 292 292 293 294 293 293 291 285 282 284 290 298 303 304 304
216 210 204 200 197 195 193 191 189 188 188 191 195 195 191 188 189 194 202 204 201 201 203 213 229 245 242 236 241 247 252 262 267 268 268 262 260 267 275 283 289 289 287 292 297 298 297 297 296 294 293 292 292 292 288 284 286 290 296 306 314 314 311
228 220 211 203 198 195 195 194 193 192 190 191 194 193 191 193 198 202 201 198 199 203 207 215 228 241 240 235 239 247 252 256 258 260 261 258 258 265 276 285 288 285 287 293 298 298 298 298 297 297 296 294 292 291 289 288 289 292 300 314 323 322 317
238 226 214 206 200 197 198 197 197 195 189 188 192 194 196 200 202 202 199 197 198 199 202 211 223 235 237 232 234 244 251 254 253 252 252 253 258 265 274 283 283 281 287 293 295 296 297 299 299 300 298 295 295 294 292 290 291 294 303 314 322 324 320
234 223 211 204 200 198 198 197 197 195 188 186 192 197 199 201 201 203 204 202 200 202 207 211 217 228 233 231 233 240 246 250 249 246 247 250 256 263 269 275 277 278 283 290 293 294 296 298 299 299 298 297 298 298 295 294 293 295 301 310 318 323 320
216 210 202 197 194 193 193 192 191 190 187 185 187 191 193 197 199 203 209 208 204 209 219 223 223 229 231 228 231 238 242 243 244 244 246 250 254 260 263 268 272 276 280 286 290 291 294 297 298 297 298 299 298 299 298 296 296 296 300 307 316 322 322
203 198 193 189 188 186 186 186 185 184 183 182 183 184 188 195 198 202 208 209 205 210 225 231 230 230 230 226 227 233 236 235 237 242 246 249 253 256 258 262 266 271 275 281 286 288 293 296 296 294 295 296 298 301 300 296 296 298 302 306 315 321 322
191 186 183 180 180 180 181 180 179 180 180 181 184 184 187 194 200 202 205 207 206 211 221 228 230 232 233 230 227 227 228 227 231 240 245 247 250 252 253 258 263 267 270 276 284 288 292 295 294 292 293 296 299 301 301 300 300 300 301 306 315 320 320
172 170 169 168 169 171 173 173 174 177 180 183 186 187 189 196 201 206 209 209 211 214 216 220 228 232 234 234 229 224 225 226 228 236 242 245 249 251 252 256 258 261 265 271 278 284 289 294 293 291 293 298 299 298 296 297 299 299 301 307 314 318 318
157 157 158 159 162 165 168 170 173 176 180 184 190 193 196 200 204 210 216 217 217 219 218 220 226 229 231 234 231 224 226 229 229 234 242 245 248 250 250 251 253 257 261 266 273 280 286 289 289 291 295 296 297 299 298 299 300 298 300 308 314 316 317
153 154 154 153 158 164 170 173 175 177 181 187 194 200 203 208 214 218 221 223 224 226 225 225 228 228 228 229 228 226 228 230 231 234 239 244 247 248 248 247 250 254 259 263 270 278 283 284 285 290 294 296 298 301 302 301 300 295 297 308 315 315 315
154 154 152 153 159 164 167 173 178 181 184 191 199 205 209 215 224 228 227 227 230 231 232 232 229 227 227 227 227 228 229 232 234 234 238 243 244 245 244 244 247 251 255 261 267 271 273 276 281 286 291 297 300 299 297 298 297 294 299 310 318 318 316
154 153 152 158 165 165 164 170 179 182 185 194 205 212 219 228 237 244 243 240 239 241 242 240 233 228 229 229 228 230 232 234 235 233 234 239 241 242 243 241 243 248 253 257 259 260 265 271 276 283 290 296 298 300 302 303 300 299 305 314 320 321 318
158 156 156 162 167 165 163 169 178 182 186 198 210 221 234 241 246 252 254 254 256 258 256 248 239 235 234 231 232 238 239 235 232 230 231 235 238 241 242 242 244 247 249 252 253 254 260 266 270 278 288 295 298 302 306 303 298 304 311 314 317 320 320
161 158 160 165 165 164 166 171 177 183 192 203 209 219 237 248 254 260 265 269 274 271 263 252 244 241 240 235 237 244 244 235 231 230 232 238 242 243 246 251 255 252 246 244 246 249 254 259 263 272 284 294 298 303 307 306 304 311 312 308 311 319 322
161 161 162 164 166 169 171 174 177 180 191 211 220 228 242 255 265 273 278 283 284 277 264 252 243 240 240 238 238 244 243 235 231 232 235 241 245 247 252 260 261 255 249 244 242 245 248 250 258 271 282 292 298 304 310 311 313 315 309 304 310 318 320
158 162 161 159 166 172 169 170 184 187 193 223 241 253 265 275 282 287 289 289 285 275 260 250 244 242 244 243 242 243 241 233 233 239 242 244 246 249 255 259 256 253 255 250 244 244 248 250 261 275 284 292 299 302 305 309 312 308 299 299 307 313 315
150 152 154 159 174 183 178 170 179 187 195 216 237 256 268 279 287 291 294 296 292 277 261 255 254 251 249 246 242 239 239 238 241 244 245 248 253 252 250 250 248 250 256 254 248 248 254 261 271 278 284 293 299 299 302 309 309 299 295 300 308 311 313
147 149 156 168 180 186 183 176 179 196 221 236 250 262 272 280 283 283 287 288 285 275 265 261 260 254 246 242 241 241 242 244 245 243 243 251 258 254 249 251 253 252 253 249 243 241 245 257 269 274 281 293 298 295 295 298 297 295 298 306 311 312 317
154 162 169 177 181 180 184 198 221 245 256 265 275 283 291 296 295 292 290 284 279 275 264 255 251 249 246 246 249 249 245 242 243 245 249 256 254 248 251 260 257 247 242 240 237 234 236 247 260 264 268 280 286 284 286 290 295 299 304 309 312 314 320
148 157 168 177 180 189 216 239 251 259 268 278 288 293 300 304 301 300 298 286 275 269 258 247 246 252 257 257 255 252 246 241 244 251 255 256 251 245 251 261 251 238 237 242 243 242 245 253 261 263 266 273 275 275 280 289 297 301 303 306 310 315 321
155 165 180 190 200 218 238 246 251 261 275 287 294 299 306 310 304 302 303 289 270 263 259 255 255 260 264 263 262 263 259 252 255 262 259 254 255 255 253 248 241 239 242 247 248 248 251 256 261 263 268 274 275 276 281 288 293 298 301 305 311 317 322
179 186 186 197 223 236 239 245 256 271 282 289 296 303 309 308 291 289 298 291 277 274 269 262 261 266 268 269 271 274 270 259 258 267 268 264 265 262 249 236 243 251 252 251 250 251 253 255 257 260 265 270 272 276 282 287 290 295 300 305 312 320 324
Height
1509 1511 1515 1519 1522 1526 1531 1532 1533 1533 1534 1536 1538 1540 1542 1544 1546 1547 1548 1549 1550 1551 1552 1552 1553 1553 1554 1554 1553 1553 1553 1552 1552 1551 1551 1550 1550 1549 1549 1548 1547 1546 1545 1544 1543 1542 1541 1541 1540 1539 1537 1536 1536 1535 1534 1533 1532 1531 1529 1528 1527 1526 1525
1505 1508 1511 1516 1519 1523 1528 1530 1530 1530 1531 1533 1535 1538 1540 1542 1544 1545 1547 1548 1549 1550 1550 1551 1552 1552 1552 1552 1552 1551 1551 1551 1551 1550 1549 1549 1549 1548 1548 1547 1546 1545 1544 1543 1542 1541 1540 1539 1539 1538 1536 1535 1534 1533 1533 1531 1530 1529 1528 1527 1526 1525 1524
1503 1506 1507 1511 1514 1518 1525 1527 1526 1526 1527 1530 1533 1535 1537 1540 1542 1544 1545 1546 1547 1548 1549 1550 1550 1551 1551 1551 1551 1550 1550 1550 1549 1549 1549 1548 1548 1547 1547 1546 1545 1544 1543 1542 1541 1540 1539 1538 1537 1536 1535 1534 1533 1532 1531 1530 1529 1528 1527 1526 1525 1524 1522
1499 1502 1504 1508 1511 1515 1521 1524 1523 1523 1525 1528 1530 1533 1535 1537 1540 1542 1543 1544 1545 1546 1547 1548 1549 1549 1549 1549 1549 1549 1548 1548 1548 1547 1547 1547 1547 1546 1545 1545 1544 1544 1543 1541 1540 1539 1538 1537 1536 1535 1534 1533 1532 1531 1530 1529 1528 1527 1526 1525 1524 1522 1521
1496 1499 1501 1505 1507 1511 1518 1521 1520 1519 1523 1526 1529 1531 1533 1535 1538 1540 1541 1542 1543 1545 1546 1547 1547 1547 1547 1547 1547 1547 1547 1547 1546 1546 1546 1545 1545 1544 1544 1544 1543 1543 1542 1541 1540 1539 1537 1536 1535 1534 1533 1532 1531 1530 1529 1528 1527 1526 1525 1524 1523 1521 1520
1494 1496 1498 1502 1505 1509 1514 1519 1517 1516 1521 1524 1527 1530 1531 1533 1536 1538 1540 1540 1542 1543 1544 1545 1545 1545 1545 1545 1546 1546 1545 1545 1545 1544 1544 1544 1543 1543 1543 1543 1542 1542 1541 1540 1539 1538 1536 1535 1534 1533 1532 1531 1530 1529 1528 1527 1526 1525 1524 1522 1521 1520 1519
1492 1494 1496 1500 1504 1508 1513 1516 1514 1515 1519 1522 1525 1528 1529 1532 1534 1536 1538 1539 1540 1542 1542 1543 1543 1543 1544 1544 1544 1544 1544 1544 1543 1543 1543 1542 1542 1542 1542 1542 1541 1540 1539 1538 1537 1536 1536 1535 1533 1532 1531 1530 1529 1528 1527 1526 1525 1524 1522 1521 1520 1519 1518
1491 1493 1496 1499 1503 1508 1513 1514 1511 1513 1517 1520 1522 1525 1528 1531 1532 1535 1537 1537 1539 1540 1541 1542 1542 1541 1542 1542 1543 1543 1542 1542 1542 1542 1542 1541 1541 1541 1541 1541 1540 1540 1539 1537 1536 1535 1534 1533 1532 1531 1530 1529 1528 1527 1526 1524 1523 1522 1521 1520 1519 1517 1516
1490 1492 1495 1498 1502 1507 1512 1512 1509 1511 1515 1518 1520 1523 1526 1529 1530 1533 1535 1536 1537 1539 1540 1541 1541 1540 1540 1540 1541 1541 1541 1541 1541 1540 1540 1540 1540 1540 1540 1540 1540 1539 1538 1537 1536 1534 1533 1532 1530 1529 1528 1527 1526 1525 1524 1523 1522 1521 1520 1519 1517 1516 1515
1489 1491 1494 1497 1500 1503 1508 1510 1508 1509 1513 1515 1518 1521 1523 1526 1528 1531 1533 1534 1535 1537 1538 1540 1540 1539 1539 1539 1539 1539 1539 1539 1539 1539 1539 1539 1540 1539 1539 1539 1539 1538 1537 1536 1535 1533 1532 1530 1529 1528 1527 1526 1525 1523 1522 1522 1520 1519 1518 1517 1516 1515 1513
1489 1491 1492 1494 1497 1499 1503 1506 1505 1506 1510 1512 1515 1518 1521 1523 1526 1528 1530 1532 1534 1535 1537 1537 1538 1538 1538 1538 1538 1538 1538 1538 1538 1538 1538 1538 1538 1538 1538 1538 1537 1536 1535 1534 1533 1532 1531 1530 1528 1527 1525 1524 1523 1522 1521 1520 1519 1518 1517 1516 1515 1513 1512
1488 1489 1491 1492 1494 1496 1499 1501 1502 1503 1506 1509 1512 1515 1517 1520 1523 1525 1527 1529 1531 1534 1535 1536 1536 1537 1537 1537 1537 1537 1537 1537 1537 1537 1537 1537 1537 1536 1536 1535 1535 1534 1534 1533 1532 1531 1530 1529 1528 1526 1524 1522 1521 1520 1519 1518 1516 1516 1515 1514 1513 1512 1510
1487 1488 1490 1491 1493 1495 1496 1498 1500 1501 1503 1506 1508 1511 1514 1517 1521 1523 1526 1528 1530 1531 1533 1534 1534 1534 1534 1535 1536 1536 1535 1536 1535 1535 1535 1535 1535 1535 1534 1533 1533 1532 1531 1530 1530 1529 1528 1527 1526 1524 1523 1521 1520 1518 1517 1516 1515 1514 1513 1512 1511 1510 1509
1485 1486 1488 1490 1492 1494 1495 1497 1499 1500 1502 1503 1506 1509 1512 1515 1519 1520 1523 1526 1528 1529 1531 1532 1531 1531 1532 1532 1533 1533 1533 1534 1534 1534 1534 1533 1533 1533 1532 1531 1531 1529 1529 1528 1528 1527 1526 1525 1524 1523 1521 1520 1518 1517 1515 1514 1513 1513 1512 1511 1509 1508 1507
1483 1484 1486 1487 1489 1491 1493 1496 1497 1498 1500 1502 1504 1507 1509 1513 1516 1518 1521 1523 1525 1527 1528 1529 1529 1529 1530 1530 1531 1531 1531 1532 1532 1532 1532 1531 1531 1531 1530 1529 1529 1528 1527 1527 1526 1525 1524 1523 1522 1520 1519 1518 1516 1515 1514 1512 1512 1511 1510 1509 1508 1506 1504
1481 1482 1483 1485 1487 1489 1491 1493 1494 1496 1498 1500 1502 1504 1507 1511 1514 1517 1520 1522 1523 1525 1526 1527 1527 1526 1528 1528 1529 1529 1529 1529 1530 1530 1530 1530 1529 1529 1528 1528 1527 1526 1526 1525 1524 1523 1521 1520 1519 1518 1517 1516 1515 1513 1512 1511 1510 1508 1508 1507 1506 1504 1502
1478 1479 1481 1482 1484 1486 1488 1490 1492 1494 1496 1497 1499 1501 1504 1508 1511 1514 1518 1520 1521 1522 1523 1524 1524 1524 1525 1526 1526 1527 1527 1528 1528 1528 1528 1528 1527 1527 1527 1526 1525 1524 1524 1523 1522 1521 1519 1518 1517 1516 1515 1514 1513 1512 1510 1509 1507 1506 1505 1504 1503 1501 1499
1476 1477 1478 1480 1482 1483 1485 1487 1489 1490 1493 1494 1497 1499 1502 1505 1508 1512 1515 1517 1519 1520 1521 1521 1521 1522 1523 1524 1524 1525 1525 1526 1526 1526 1526 1526 1526 1525 1525 1524 1523 1523 1522 1521 1520 1519 1518 1517 1515 1514 1513 1512 1511 1510 1508 1507 1505 1503 1503 1502 1500 1499 1497
1474 1475 1476 1478 1479 1481 1483 1485 1487 1489 1491 1492 1494 1496 1499 1503 1506 1510 1512 1514 1516 1518 1519 1519 1519 1520 1521 1521 1522 1522 1523 1524 1523 1524 1524 1524 1524 1523 1523 1522 1521 1521 1521 1519 1518 1517 1516 1515 1514 1512 1511 1510 1509 1507 1506 1505 1503 1502 1501 1500 1498 1497 1495
1473 1473 1474 1476 1477 1479 1481 1483 1485 1488 1489 1491 1492 1495 1499 1502 1505 1508 1510 1512 1514 1515 1516 1516 1517 1518 1518 1519 1520 1520 1520 1521 1521 1522 1522 1521 1521 1521 1520 1520 1519 1519 1519 1518 1517 1516 1514 1513 1512 1511 1510 1508 1507 1505 1504 1503 1502 1500 1499 1498 1496 1495 1493
1470 1471 1472 1474 1475 1477 1479 1481 1484 1486 1488 1490 1492 1495 1499 1501 1504 1507 1508 1510 1511 1512 1513 1513 1514 1516 1516 1517 1517 1518 1518 1518 1518 1519 1519 1519 1519 1519 1518 1518 1517 1517 1517 1516 1515 1514 1513 1511 1510 1509 1508 1506 1505 1504 1502 1501 1500 1498 1497 1496 1495 1493 1491
1468 1469 1471 1472 1474 1475 1477 1480 1482 1485 1487 1490 1492 1495 1498 1500 1503 1505 1506 1508 1509 1510 1510 1511 1512 1513 1514 1514 1515 1515 1515 1516 1516 1517 1517 1517 1517 1517 1516 1516 1515 1515 1515 1514 1513 1512 1511 1510 1509 1507 1506 1505 1503 1502 1501 1500 1498 1497 1496 1494 1493 1491 1489
1467 1468 1469 1471 1473 1474 1476 1479 1482 1484 1486 1489 1491 1495 1497 1500 1502 1503 1505 1506 1507 1508 1508 1509 1510 1511 1511 1511 1512 1512 1513 1513 1514 1514 1515 1515 1515 1515 1514 1514 1513 1513 1513 1512 1511 1510 1509 1508 1507 1505 1504 1503 1502 1501 1499 1498 1497 1496 1494 1493 1491 1490 1488
1466 1468 1468 1470 1472 1473 1476 1479 1481 1483 1486 1488 1491 1494 1496 1499 1500 1502 1503 1504 1505 1506 1506 1506 1507 1508 1508 1509 1509 1510 1511 1511 1512 1512 1512 1513 1513 1512 1512 1512 1511 1511 1511 1510 1509 1508 1507 1506 1504 1503 1502 1501 1500 1499 1497 1496 1495 1495 1493 1491 1490 1488 1486
1466 1467 1468 1469 1471 1473 1475 1478 1480 1483 1485 1488 1490 1493 1495 1497 1499 1500 1501 1502 1503 1504 1504 1504 1504 1505 1505 1506 1507 1508 1509 1509 1509 1509 1510 1510 1510 1510 1510 1509 1509 1509 1508 1507 1506 1505 1505 1504 1502 1501 1500 1499 1498 1497 1496 1494 1493 1493 1492 1490 1488 1486 1485
1465 1467 1467 1469 1471 1473 1474 1477 1480 1482 1485 1487 1489 1491 1493 1495 1497 1498 1499 1500 1501 1501 1501 1501 1502 1502 1503 1504 1504 1506 1506 1506 1506 1506 1507 1507 1507 1507 1507 1506 1506 1506 1505 1504 1504 1503 1503 1501 1500 1499 1498 1497 1495 1494 1494 1492 1490 1490 1489 1488 1486 1484 1483
1465 1466 1468 1470 1471 1472 1474 1477 1479 1482 1484 1486 1488 1490 1492 1494 1495 1496 1497 1498 1498 1498 1499 1499 1499 1500 1501 1501 1501 1502 1502 1502 1503 1503 1504 1504 1504 1504 1504 1503 1503 1503 1502 1502 1501 1501 1500 1499 1498 1497 1495 1494 1493 1492 1491 1489 1488 1487 1486 1485 1484 1482 1481
1464 1466 1468 1470 1471 1472 1475 1477 1479 1482 1484 1486 1487 1489 1491 1492 1493 1494 1495 1495 1495 1496 1496 1497 1497 1497 1497 1497 1498 1498 1499 1499 1499 1500 1500 1500 1500 1500 1500 1500 1500 1500 1499 1500 1499 1498 1497 1496 1495 1494 1493 1492 1491 1490 1488 1487 1486 1484 1483 1483 1482 1481 1479
1464 1466 1467 1469 1471 1473 1475 1477 1479 1481 1484 1485 1487 1489 1490 1490 1491 1491 1492 1492 1492 1493 1494 1494 1494 1494 1493 1493 1494 1495 1495 1496 1496 1496 1497 1496 1496 1497 1496 1496 1496 1495 1495 1496 1496 1495 1494 1493 1492 1491 1491 1490 1489 1488 1486 1485 1484 1483 1481 1480 1480 1479 1477
1463 1465 1467 1469 1472 1473 1475 1477 1479 1481 1483 1485 1486 1487 1488 1488 1489 1489 1490 1490 1490 1491 1491 1491 1491 1491 1490 1490 1491 1492 1493 1493 1493 1493 1493 1493 1493 1493 1492 1492 1492 1491 1492 1492 1492 1492 1491 1490 1489 1489 1488 1488 1487 1485 1485 1484 1482 1481 1480 1479 1478 1478 1476
1463 1465 1466 1469 1472 1473 1475 1477 1479 1481 1482 1483 1484 1485 1486 1487 1487 1487 1487 1488 1488 1488 1488 1488 1488 1488 1487 1488 1489 1489 1490 1490 1490 1489 1489 1489 1490 1489 1489 1489 1488 1488 1488 1488 1489 1489 1488 1487 1487 1486 1486 1485 1484 1483 1483 1482 1480 1479 1478 1477 1477 1476 1475
1463 1464 1466 1469 1471 1472 1475 1477 1479 1480 1481 1482 1483 1484 1484 1485 1485 1485 1485 1485 1485 1485 1485 1485 1485 1485 1485 1485 1485 1486 1488 1488 1487 1487 1486 1487 1487 1487 1486 1485 1485 1485 1485 1485 1486 1486 1485 1484 1484 1484 1483 1483 1482 1481 1481 1481 1479 1477 1476 1476 1475 1474 1473
1463 1465 1467 1468 1470 1472 1474 1476 1478 1479 1480 1481 1482 1482 1483 1484 1484 1483 1483 1483 1483 1484 1483 1482 1482 1482 1482 1482 1483 1483 1484 1484 1484 1484 1484 1484 1484 1484 1483 1482 1482 1482 1483 1484 1485 1484 1482 1482 1482 1482 1481 1481 1481 1480 1480 1480 1478 1476 1474 1474 1473 1472 1471
1462 1464 1466 1467 1469 1472 1473 1475 1476 1478 1478 1479 1480 1481 1482 1482 1483 1483 1483 1482 1482 1482 1481 1480 1480 1480 1480 1481 1481 1481 1481 1481 1481 1482 1482 1482 1482 1481 1480 1480 1479 1479 1480 1481 1481 1481 1480 1480 1480 1480 1480 1480 1479 1479 1478 1478 1477 1474 1473 1472 1471 1469 1469
1461 1463 1464 1466 1468 1470 1472 1473 1475 1476 1477 1478 1478 1479 1479 1479 1480 1481 1481 1480 1480 1480 1480 1479 1478 1478 1478 1479 1478 1478 1477 1478 1478 1478 1478 1478 1478 1477 1476 1476 1476 1476 1476 1477 1478 1477 1477 1478 1478 1478 1478 1478 1478 1477 1476 1476 1474 1473 1471 1470 1468 1467 1466
1461 1462 1463 1465 1467 1469 1471 1472 1474 1475 1476 1477 1477 1477 1477 1477 1477 1478 1478 1479 1478 1477 1478 1477 1477 1477 1477 1476 1476 1475 1474 1474 1474 1475 1474 1474 1473 1472 1473 1474 1473 1473 1473 1474 1475 1475 1475 1475 1476 1476 1476 1476 1475 1474 1474 1473 1472 1471 1470 1468 1467 1466 1464
1460 1461 1463 1465 1467 1468 1470 1472 1473 1474 1474 1475 1475 1475 1475 1475 1476 1476 1476 1477 1476 1476 1476 1476 1475 1475 1475 1475 1474 1473 1472 1472 1472 1472 1471 1471 1470 1469 1470 1471 1470 1470 1470 1471 1472 1472 1472 1473 1473 1473 1473 1473 1472 1471 1472 1471 1470 1469 1468 1467 1465 1464 1463
1459 1461 1463 1465 1465 1468 1470 1471 1472 1472 1472 1473 1473 1473 1473 1474 1475 1475 1475 1476 1475 1474 1475 1475 1474 1474 1474 1473 1472 1471 1470 1471 1470 1470 1469 1469 1467 1466 1466 1468 1468 1468 1468 1469 1469 1469 1470 1470 1470 1470 1471 1471 1470 1469 1469 1469 1468 1467 1466 1465 1464 1463 1461